Time,TemperatureF,DewpointF,PressureIn,WindDirection,WindDirectionDegrees,WindSpeedMPH,WindSpeedGustMPH,Humidity,HourlyPrecipIn,Conditions,Clouds,dailyrainin,SoftwareType,DateUTC
2013-05-13 00:02:00,-999.0,-99.9,29.96,WNW,286,9.0,9.0,-999,-99.99,,,-99.99,,2013-05-13 08:02:00,
2013-05-13 00:11:00,21.0,-99.9,29.96,WNW,291,9.0,9.0,-999,-99.99,,,-99.99,,2013-05-13 08:11:00,
2013-05-13 00:22:00,-999.0,-99.9,29.96,WNW,294,9.0,10.0,-999,-99.99,,,-99.99,,2013-05-13 08:22:00,
2013-05-13 00:32:00,-999.0,-99.9,29.96,NW,320,11.0,12.0,-999,-99.99,,,-99.99,,2013-05-13 08:32:00,
2013-05-13 00:42:00,22.0,-99.9,29.95,NW,321,14.0,15.0,-999,-99.99,,,-99.99,,2013-05-13 08:42:00,
2013-05-13 00:52:00,-999.0,-99.9,29.96,SSE,158,6.0,9.0,-999,-99.99,,,-99.99,,2013-05-13 08:52:00,
2013-05-13 01:01:00,-999.0,-99.9,29.96,NW,313,5.0,7.0,-999,-99.99,,,-99.99,,2013-05-13 09:01:00,
2013-05-13 01:11:00,-999.0,-99.9,29.96,North,359,5.0,6.0,-999,-99.99,,,-99.99,,2013-05-13 09:11:00,
2013-05-13 01:21:00,-999.0,-99.9,29.96,NW,309,9.0,12.0,-999,-99.99,,,-99.99,,2013-05-13 09:21:00,
2013-05-13 01:33:00,-999.0,-99.9,29.96,NNW,330,2.0,5.0,-999,-99.99,,,-99.99,,2013-05-13 09:33:00,
2013-05-13 01:42:00,22.0,-99.9,29.96,NNW,339,5.0,5.0,-999,-99.99,,,-99.99,,2013-05-13 09:42:00,
2013-05-13 01:52:00,-999.0,-99.9,29.96,NNW,334,7.0,8.0,-999,-99.99,,,-99.99,,2013-05-13 09:52:00,
2013-05-13 02:03:00,-999.0,-99.9,29.96,North,359,2.0,5.0,-999,-99.99,,,-99.99,,2013-05-13 10:03:00,
2013-05-13 02:12:00,23.0,-99.9,29.96,NNW,344,4.0,5.0,-999,-99.99,,,-99.99,,2013-05-13 10:12:00,
2013-05-13 02:22:00,-999.0,-99.9,29.95,NNW,331,7.0,11.0,-999,-99.99,,,-99.99,,2013-05-13 10:22:00,
2013-05-13 02:33:00,-999.0,-99.9,29.95,NW,326,9.0,11.0,-999,-99.99,,,-99.99,,2013-05-13 10:33:00,
2013-05-13 02:43:00,-999.0,-99.9,29.96,NNW,331,8.0,10.0,-999,-99.99,,,-99.99,,2013-05-13 10:43:00,
2013-05-13 02:53:00,-999.0,-99.9,29.96,NNW,336,10.0,13.0,-999,-99.99,,,-99.99,,2013-05-13 10:53:00,
2013-05-13 03:03:00,-999.0,-99.9,29.95,NNW,340,4.0,9.0,-999,-99.99,,,-99.99,,2013-05-13 11:03:00,
2013-05-13 03:12:00,22.0,-99.9,29.95,East,83,2.0,5.0,-999,-99.99,,,-99.99,,2013-05-13 11:12:00,
2013-05-13 03:22:00,-999.0,-99.9,29.95,NE,53,4.0,7.0,-999,-99.99,,,-99.99,,2013-05-13 11:22:00,
2013-05-13 03:32:00,-999.0,-99.9,29.95,NNW,347,8.0,11.0,-999,-99.99,,,-99.99,,2013-05-13 11:32:00,
2013-05-13 03:42:00,21.0,-99.9,29.95,NNW,335,8.0,9.0,-999,-99.99,,,-99.99,,2013-05-13 11:42:00,
2013-05-13 03:52:00,-999.0,-99.9,29.95,NNW,336,8.0,9.0,-999,-99.99,,,-99.99,,2013-05-13 11:52:00,
2013-05-13 04:02:00,-999.0,-99.9,29.95,NNW,335,10.0,11.0,-999,-99.99,,,-99.99,,2013-05-13 12:02:00,
2013-05-13 04:12:00,21.0,-99.9,29.95,NNW,332,12.0,15.0,-999,-99.99,,,-99.99,,2013-05-13 12:12:00,
2013-05-13 04:21:00,-999.0,-99.9,29.94,NW,325,13.0,15.0,-999,-99.99,,,-99.99,,2013-05-13 12:21:00,
2013-05-13 04:32:00,-999.0,-99.9,29.95,NW,320,6.0,8.0,-999,-99.99,,,-99.99,,2013-05-13 12:32:00,
2013-05-13 04:42:00,19.0,-99.9,29.95,NW,320,6.0,10.0,-999,-99.99,,,-99.99,,2013-05-13 12:42:00,
2013-05-13 04:52:00,-999.0,-99.9,29.95,NW,312,6.0,7.0,-999,-99.99,,,-99.99,,2013-05-13 12:52:00,
2013-05-13 05:01:00,-999.0,-99.9,29.95,WNW,299,7.0,8.0,-999,-99.99,,,-99.99,,2013-05-13 13:01:00,
2013-05-13 05:11:00,18.0,-99.9,29.95,NW,305,9.0,10.0,-999,-99.99,,,-99.99,,2013-05-13 13:11:00,
2013-05-13 05:22:00,-999.0,-99.9,29.95,NNW,330,6.0,9.0,-999,-99.99,,,-99.99,,2013-05-13 13:22:00,
2013-05-13 05:32:00,-999.0,-99.9,29.94,NW,321,9.0,10.0,-999,-99.99,,,-99.99,,2013-05-13 13:32:00,
2013-05-13 05:42:00,-999.0,-99.9,29.94,NW,321,9.0,10.0,-999,-99.99,,,-99.99,,2013-05-13 13:42:00,
2013-05-13 05:52:00,-999.0,-99.9,29.94,NW,321,9.0,10.0,-999,-99.99,,,-99.99,,2013-05-13 13:52:00,
2013-05-13 06:02:00,-999.0,-99.9,29.94,NW,321,9.0,10.0,-999,-99.99,,,-99.99,,2013-05-13 14:02:00,
2013-05-13 06:11:00,-999.0,-99.9,29.95,North,353,4.0,7.0,-999,-99.99,,,-99.99,,2013-05-13 14:11:00,
2013-05-13 06:22:00,19.0,-99.9,29.94,NNW,328,9.0,10.0,-999,-99.99,,,-99.99,,2013-05-13 14:22:00,
2013-05-13 06:32:00,-999.0,-99.9,29.94,NW,322,8.0,11.0,-999,-99.99,,,-99.99,,2013-05-13 14:32:00,
2013-05-13 06:42:00,19.0,-99.9,29.94,NW,318,11.0,12.0,-999,-99.99,,,-99.99,,2013-05-13 14:42:00,
2013-05-13 06:52:00,-999.0,-99.9,29.94,WNW,293,16.0,17.0,-999,-99.99,,,-99.99,,2013-05-13 14:52:00,
2013-05-13 07:01:00,-999.0,-99.9,29.93,WNW,295,10.0,12.0,-999,-99.99,,,-99.99,,2013-05-13 15:01:00,
2013-05-13 07:11:00,-999.0,-99.9,29.93,WNW,295,10.0,12.0,-999,-99.99,,,-99.99,,2013-05-13 15:11:00,
2013-05-13 07:22:00,-999.0,-99.9,29.93,WNW,295,10.0,12.0,-999,-99.99,,,-99.99,,2013-05-13 15:22:00,
2013-05-13 07:32:00,-999.0,-99.9,29.93,WNW,295,10.0,12.0,-999,-99.99,,,-99.99,,2013-05-13 15:32:00,
2013-05-13 10:23:00,-999.0,-99.9,29.93,NNW,330,10.0,12.0,-999,-99.99,,,-99.99,,2013-05-13 18:23:00,
2013-05-13 10:32:00,-999.0,-99.9,29.93,NNW,330,10.0,12.0,-999,-99.99,,,-99.99,,2013-05-13 18:32:00,
2013-05-13 10:43:00,-999.0,-99.9,29.93,North,9,9.0,14.0,-999,-99.99,,,-99.99,,2013-05-13 18:43:00,
2013-05-13 10:52:00,-999.0,-99.9,29.94,North,354,9.0,14.0,-999,-99.99,,,-99.99,,2013-05-13 18:52:00,
2013-05-13 11:01:00,-999.0,-99.9,29.93,NNW,337,8.0,11.0,-999,-99.99,,,-99.99,,2013-05-13 19:01:00,
2013-05-13 11:12:00,24.0,-99.9,29.94,North,355,11.0,12.0,-999,-99.99,,,-99.99,,2013-05-13 19:12:00,
2013-05-13 11:22:00,-999.0,-99.9,29.93,NNW,344,15.0,17.0,-999,-99.99,,,-99.99,,2013-05-13 19:22:00,
2013-05-13 11:33:00,-999.0,-99.9,29.93,North,356,13.0,18.0,-999,-99.99,,,-99.99,,2013-05-13 19:33:00,
2013-05-13 11:44:00,23.0,-99.9,29.93,NNW,346,12.0,16.0,-999,-99.99,,,-99.99,,2013-05-13 19:44:00,
2013-05-13 11:53:00,-999.0,-99.9,29.93,North,351,13.0,16.0,-999,-99.99,,,-99.99,,2013-05-13 19:53:00,
2013-05-13 12:02:00,-999.0,-99.9,29.92,North,353,17.0,20.0,-999,-99.99,,,-99.99,,2013-05-13 20:02:00,
2013-05-13 12:11:00,-999.0,-99.9,29.92,NNW,334,16.0,19.0,-999,-99.99,,,-99.99,,2013-05-13 20:11:00,
2013-05-13 12:23:00,-999.0,-99.9,29.92,NNW,344,18.0,21.0,-999,-99.99,,,-99.99,,2013-05-13 20:23:00,
2013-05-13 12:34:00,-999.0,-99.9,29.93,NNW,342,14.0,19.0,-999,-99.99,,,-99.99,,2013-05-13 20:34:00,
2013-05-13 12:44:00,25.0,-99.9,29.93,North,350,10.0,14.0,-999,-99.99,,,-99.99,,2013-05-13 20:44:00,
2013-05-13 12:53:00,-999.0,-99.9,29.93,NNW,344,9.0,11.0,-999,-99.99,,,-99.99,,2013-05-13 20:53:00,
2013-05-13 13:03:00,-999.0,-99.9,29.93,North,351,11.0,14.0,-999,-99.99,,,-99.99,,2013-05-13 21:03:00,
2013-05-13 13:14:00,26.0,-99.9,29.92,North,10,7.0,12.0,-999,-99.99,,,-99.99,,2013-05-13 21:14:00,
2013-05-13 13:23:00,-999.0,-99.9,29.92,NNE,13,6.0,12.0,-999,-99.99,,,-99.99,,2013-05-13 21:23:00,
2013-05-13 13:34:00,-999.0,-99.9,29.93,NNE,19,5.0,9.0,-999,-99.99,,,-99.99,,2013-05-13 21:34:00,
2013-05-13 13:44:00,25.0,-99.9,29.93,North,350,12.0,15.0,-999,-99.99,,,-99.99,,2013-05-13 21:44:00,
2013-05-13 13:53:00,-999.0,-99.9,29.93,North,352,16.0,18.0,-999,-99.99,,,-99.99,,2013-05-13 21:53:00,
2013-05-13 14:03:00,-999.0,-99.9,29.93,North,357,11.0,17.0,-999,-99.99,,,-99.99,,2013-05-13 22:03:00,
2013-05-13 14:12:00,26.0,-99.9,29.93,NE,53,9.0,15.0,-999,-99.99,,,-99.99,,2013-05-13 22:12:00,
2013-05-13 14:23:00,-999.0,-99.9,29.93,NE,42,5.0,9.0,-999,-99.99,,,-99.99,,2013-05-13 22:23:00,
2013-05-13 14:32:00,-999.0,-99.9,29.93,East,79,3.0,5.0,-999,-99.99,,,-99.99,,2013-05-13 22:32:00,
2013-05-13 14:43:00,27.0,-99.9,29.93,ENE,73,4.0,6.0,-999,-99.99,,,-99.99,,2013-05-13 22:43:00,
2013-05-13 14:52:00,-999.0,-99.9,29.93,East,99,8.0,12.0,-999,-99.99,,,-99.99,,2013-05-13 22:52:00,
2013-05-13 15:02:00,-999.0,-99.9,29.93,ESE,112,6.0,10.0,-999,-99.99,,,-99.99,,2013-05-13 23:02:00,
2013-05-13 15:13:00,26.0,-99.9,29.93,ESE,102,10.0,13.0,-999,-99.99,,,-99.99,,2013-05-13 23:13:00,
2013-05-13 15:23:00,-999.0,-99.9,29.93,SE,126,9.0,12.0,-999,-99.99,,,-99.99,,2013-05-13 23:23:00,
2013-05-13 15:34:00,-999.0,-99.9,29.93,ESE,120,10.0,11.0,-999,-99.99,,,-99.99,,2013-05-13 23:34:00,
2013-05-13 15:42:00,-999.0,-99.9,29.93,ESE,111,8.0,9.0,-999,-99.99,,,-99.99,,2013-05-13 23:42:00,
2013-05-13 15:54:00,-999.0,-99.9,29.93,SE,130,6.0,10.0,-999,-99.99,,,-99.99,,2013-05-13 23:54:00,
2013-05-13 16:03:00,-999.0,-99.9,29.92,SSE,152,7.0,9.0,-999,-99.99,,,-99.99,,2013-05-14 00:03:00,
2013-05-13 16:13:00,26.0,-99.9,29.92,SSE,155,4.0,8.0,-999,-99.99,,,-99.99,,2013-05-14 00:13:00,
2013-05-13 16:22:00,-999.0,-99.9,29.92,SSE,159,5.0,7.0,-999,-99.99,,,-99.99,,2013-05-14 00:22:00,
2013-05-13 16:32:00,-999.0,-99.9,29.92,SSE,157,5.0,7.0,-999,-99.99,,,-99.99,,2013-05-14 00:32:00,
2013-05-13 16:42:00,-999.0,-99.9,29.92,SSE,163,4.0,5.0,-999,-99.99,,,-99.99,,2013-05-14 00:42:00,
2013-05-13 16:52:00,-999.0,-99.9,29.92,South,170,2.0,5.0,-999,-99.99,,,-99.99,,2013-05-14 00:52:00,
2013-05-13 17:02:00,-999.0,-99.9,29.92,SW,232,2.0,4.0,-999,-99.99,,,-99.99,,2013-05-14 01:02:00,
2013-05-13 17:11:00,27.0,-99.9,29.92,WNW,297,8.0,11.0,-999,-99.99,,,-99.99,,2013-05-14 01:11:00,
2013-05-13 17:21:00,-999.0,-99.9,29.92,NNW,342,12.0,15.0,-999,-99.99,,,-99.99,,2013-05-14 01:21:00,
2013-05-13 17:32:00,-999.0,-99.9,29.91,NNW,335,11.0,14.0,-999,-99.99,,,-99.99,,2013-05-14 01:32:00,
2013-05-13 17:43:00,27.0,-99.9,29.91,NNW,345,11.0,13.0,-999,-99.99,,,-99.99,,2013-05-14 01:43:00,
2013-05-13 17:53:00,-999.0,-99.9,29.92,NNW,342,12.0,15.0,-999,-99.99,,,-99.99,,2013-05-14 01:53:00,
2013-05-13 18:03:00,-999.0,-99.9,29.91,North,354,13.0,16.0,-999,-99.99,,,-99.99,,2013-05-14 02:03:00,
2013-05-13 18:12:00,26.0,-99.9,29.91,North,351,14.0,17.0,-999,-99.99,,,-99.99,,2013-05-14 02:12:00,
2013-05-13 18:22:00,-999.0,-99.9,29.91,NNW,346,14.0,17.0,-999,-99.99,,,-99.99,,2013-05-14 02:22:00,
2013-05-13 18:32:00,-999.0,-99.9,29.91,North,354,12.0,16.0,-999,-99.99,,,-99.99,,2013-05-14 02:32:00,
2013-05-13 18:42:00,-999.0,-99.9,29.91,North,357,13.0,17.0,-999,-99.99,,,-99.99,,2013-05-14 02:42:00,
2013-05-13 18:52:00,26.0,-99.9,29.91,North,6,9.0,15.0,-999,-99.99,,,-99.99,,2013-05-14 02:52:00,
2013-05-13 19:01:00,-999.0,-99.9,29.91,North,5,9.0,14.0,-999,-99.99,,,-99.99,,2013-05-14 03:01:00,
2013-05-13 19:11:00,26.0,-99.9,29.91,North,5,10.0,15.0,-999,-99.99,,,-99.99,,2013-05-14 03:11:00,
2013-05-13 19:22:00,-999.0,-99.9,29.91,North,6,11.0,16.0,-999,-99.99,,,-99.99,,2013-05-14 03:22:00,
2013-05-13 19:33:00,-999.0,-99.9,29.91,North,350,11.0,13.0,-999,-99.99,,,-99.99,,2013-05-14 03:33:00,
2013-05-13 19:43:00,25.0,-99.9,29.90,NNW,347,9.0,12.0,-999,-99.99,,,-99.99,,2013-05-14 03:43:00,
2013-05-13 19:53:00,-999.0,-99.9,29.91,NNW,336,9.0,13.0,-999,-99.99,,,-99.99,,2013-05-14 03:53:00,
2013-05-13 20:03:00,-999.0,-99.9,29.91,North,351,11.0,13.0,-999,-99.99,,,-99.99,,2013-05-14 04:03:00,
2013-05-13 20:13:00,-999.0,-99.9,29.91,North,356,7.0,14.0,-999,-99.99,,,-99.99,,2013-05-14 04:13:00,
2013-05-13 20:23:00,-999.0,-99.9,29.91,North,355,8.0,12.0,-999,-99.99,,,-99.99,,2013-05-14 04:23:00,
2013-05-13 20:33:00,-999.0,-99.9,29.91,North,358,11.0,14.0,-999,-99.99,,,-99.99,,2013-05-14 04:33:00,
2013-05-13 20:43:00,25.0,-99.9,29.91,North,4,9.0,14.0,-999,-99.99,,,-99.99,,2013-05-14 04:43:00,
2013-05-13 20:53:00,-999.0,-99.9,29.91,North,1,7.0,13.0,-999,-99.99,,,-99.99,,2013-05-14 04:53:00,
2013-05-13 21:02:00,-999.0,-99.9,29.90,North,6,9.0,13.0,-999,-99.99,,,-99.99,,2013-05-14 05:02:00,
2013-05-13 21:12:00,24.0,-99.9,29.90,North,350,12.0,13.0,-999,-99.99,,,-99.99,,2013-05-14 05:12:00,
2013-05-13 21:22:00,-999.0,-99.9,29.90,NNW,347,11.0,14.0,-999,-99.99,,,-99.99,,2013-05-14 05:22:00,
2013-05-13 21:32:00,-999.0,-99.9,29.90,North,353,11.0,13.0,-999,-99.99,,,-99.99,,2013-05-14 05:32:00,
2013-05-13 21:42:00,24.0,-99.9,29.90,North,350,12.0,14.0,-999,-99.99,,,-99.99,,2013-05-14 05:42:00,
2013-05-13 21:53:00,-999.0,-99.9,29.90,NNW,348,11.0,13.0,-999,-99.99,,,-99.99,,2013-05-14 05:53:00,
2013-05-13 22:01:00,-999.0,-99.9,29.90,NNW,341,10.0,14.0,-999,-99.99,,,-99.99,,2013-05-14 06:01:00,
2013-05-13 22:13:00,24.0,-99.9,29.90,NNW,345,12.0,14.0,-999,-99.99,,,-99.99,,2013-05-14 06:13:00,
2013-05-13 22:22:00,-999.0,-99.9,29.90,North,352,12.0,14.0,-999,-99.99,,,-99.99,,2013-05-14 06:22:00,
2013-05-13 22:32:00,-999.0,-99.9,29.90,North,349,8.0,11.0,-999,-99.99,,,-99.99,,2013-05-14 06:32:00,
2013-05-13 22:42:00,23.0,-99.9,29.90,North,352,8.0,10.0,-999,-99.99,,,-99.99,,2013-05-14 06:42:00,
2013-05-13 22:52:00,-999.0,-99.9,29.90,North,357,7.0,9.0,-999,-99.99,,,-99.99,,2013-05-14 06:52:00,
2013-05-13 23:02:00,-999.0,-99.9,29.90,North,357,8.0,12.0,-999,-99.99,,,-99.99,,2013-05-14 07:02:00,
2013-05-13 23:11:00,23.0,-99.9,29.90,NNE,20,4.0,9.0,-999,-99.99,,,-99.99,,2013-05-14 07:11:00,
2013-05-13 23:22:00,-999.0,-99.9,29.90,North,358,8.0,10.0,-999,-99.99,,,-99.99,,2013-05-14 07:22:00,
2013-05-13 23:32:00,-999.0,-99.9,29.91,North,359,8.0,9.0,-999,-99.99,,,-99.99,,2013-05-14 07:32:00,
2013-05-13 23:42:00,-999.0,-99.9,29.91,North,358,9.0,11.0,-999,-99.99,,,-99.99,,2013-05-14 07:42:00,
2013-05-13 23:52:00,21.0,-99.9,29.91,North,358,9.0,11.0,-999,-99.99,,,-99.99,,2013-05-14 07:52:00,